Regional Weather Roundup
Issued by NWS Grand Forks, ND

Home | Current Version | Previous Version | Text Only | Print | Product List | Glossary Off
Versions: 1 2 3 4 5 6 7 8 9 10 11 12 13 14 15 16 17 18 19 20 21 22 23 24 25 26 27 28 29 30 31 32 33 34 35 36 37 38 39 40 41 42 43 44 45 46 47 48 49 50

000
ASUS43 KFGF 231431
RWRFGF
PRAIRIE TO PINES  WEATHER ROUNDUP
NATIONAL WEATHER SERVICE EASTERN NORTH DAKOTA/GRAND FORKS ND
800 AM CST THU FEB 23 2017

 **SATELLITE DATA USED TO AUGMENT SKY COVER AT AUTOMATED STATIONS**
 *****  WEATHER ACROSS EASTERN NORTH DAKOTA  *****

CITY           SKY/WX    TMP DP  RH WIND       PRES   REMARKS
GRAND FORKS    CLOUDY    29  21  72 N7        30.05S WCI  22
GRAND FRKS AFB CLOUDY    28  23  82 N6        30.05S WCI  21
DEVILS LAKE    CLOUDY    26  24  92 N8        30.02S WCI  18
FARGO          CLOUDY    30  23  75 N10       30.03R WCI  21
WAHPETON ARPT  FAIR      28  23  80 N15       30.00R WCI  17
$$

 ***** WEATHER ACROSS CENTRAL AND WESTERN NORTH DAKOTA  *****

CITY           SKY/WX    TMP DP  RH WIND       PRES   REMARKS
BISMARCK       CLOUDY    28  25  88 N5        30.02R WCI  23
MINOT          FLURRIES  26  22  84 N21       30.03R WCI  12
JAMESTOWN      CLOUDY    28  25  88 N8        30.01R WCI  20
MINOT AFB      CLOUDY    23  19  86 NE17      30.03S WCI   9
GARRISON         N/A     28  26  92 NW12      29.99F WCI  18
WILLISTON      CLOUDY    28  25  88 N21       30.03R WCI  15
DICKINSON      CLOUDY    25  23  92 N6        29.95S FOG     WCI  18
HETTINGER      CLOUDY    25  22  88 NE10      29.96R WCI  15
$$

 *****  OTHER AIRPORT OBSERVATIONS IN OUR AREA  *****

CITY           SKY/WX    TMP DP  RH WIND       PRES   REMARKS
WALHALLA       NOT AVBL
GRAFTON AIRPOR CLOUDY    25  23  93 N17       30.09R WCI  11
VALLEY CITY AR CLOUDY    27  27 100 NE9       30.03S WCI  17
CANDO          NOT AVBL
CAVALIER APRT    N/A     25  18  74 N12       30.09S WCI  14
GWINNER        FAIR      28  27  93 N9        30.00S WCI  20
SHEYENNE NWR     N/A     27  23  85 NE7       29.95S WCI  19
ROLLA          CLOUDY    21  19  93 N15       30.04S WCI   8
 ***** THE ABOVE OBSERVATIONS ARE NON NWS ARE NOT QUALITY
       CONTROLLED AND MAY MIS-REPORT RAIN FOR SNOW...
$$

  *****  WEATHER ACROSS NORTHERN MINNESOTA  *****

CITY           SKY/WX    TMP DP  RH WIND       PRES   REMARKS
FLAG ISLAND    CLOUDY    18   9  68 NW9       30.04R WCI   6
WARROAD        CLOUDY    21  12  68 NW9       30.07R WCI  11
ROSEAU         CLOUDY    23  16  74 N9        30.06R WCI  13
HALLOCK        CLOUDY    25  21  86 N10       30.08R WCI  15
THF RVR FALLS    N/A     25  19  80 MISG        N/A
BAUDETTE       CLOUDY    20  12  71 N13       30.02R WCI   7
WASKISH        CLOUDY    21  14  73 N9        30.03R WCI  11
CROOKSTON      CLOUDY    28  23  80 N8        30.07R WCI  20
STEPHEN NDAWN    N/A     27  21  80 N9          N/A  WCI  17
GREENBUSH NDAW   N/A     23  19  86 NW7         N/A  WCI  15
$$
  *****  WEATHER ACROSS CENTRAL AND WEST MINNESOTA  *****

CITY           SKY/WX    TMP DP  RH WIND       PRES   REMARKS
FOSSTON        CLOUDY    25  19  80 N18       30.02S WCI  11
BEMIDJI        CLOUDY    23  17  77 N13G18    30.00R WCI  11
PARK RAPIDS    CLOUDY    24  16  71 N9        29.97R WCI  14
ELBOW LAKE     FAIR      27  22  81 NE15      29.97R WCI  15
WADENA         MOCLDY    21  19  93 N15       29.95S WCI   8
DETROIT LAKES  FAIR      27  21  80 N9        30.00S WCI  17
MOORHEAD       CLOUDY    28  21  74 N13       30.03S WCI  18
FERGUS FALLS   FAIR      27  21  80 NE12G20   30.01S WCI  16
MORRIS MN      FAIR      28  25  86 N16       29.95S WCI  17
STAPLES        CLOUDY    23  21  93 N9        29.95S WCI  13
$$
  *****  WEATHER ELSEWHERE ACROSS MINNESOTA  *****

CITY           SKY/WX    TMP DP  RH WIND       PRES   REMARKS
DULUTH         CLOUDY    26  22  84 N10       29.90S WCI  16
INTRNTL FALLS  CLOUDY    23  14  68 NW12      29.98R WCI  12
ELY            CLOUDY    25  18  74 W8        29.92R WCI  16
CLOQUET        CLOUDY    25  21  86 NW9       29.93R WCI  15
WHEATON        FAIR      28  25  86 N12       30.01R WCI  18
BRAINERD       CLOUDY    23  19  85 N13       29.95R WCI  11
HIBBING        CLOUDY    22  19  89 N13       29.93S WCI  10
ALEXANDRIA     MOCLDY    26  22  84 N14       29.94R WCI  14
SAINT CLOUD    MOCLDY    26  23  88 N10       29.93R WCI  16
MINNEAPOLIS    CLOUDY    32  24  72 N10       29.91R WCI  24
$$

  *****  WEATHER ACROSS SOUTH DAKOTA  *****

CITY           SKY/WX    TMP DP  RH WIND       PRES   REMARKS
SIOUX FALLS    CLOUDY    32  27  81 NE14      29.89R WCI  22
BROOKINGS      MOCLDY    28  25  86 NE12      29.91F WCI  18
WATERTOWN      FAIR      27  22  81 NE16      29.91S WCI  15
HURON          FAIR      29  26  89 N7        29.95R WCI  22
SISSETON         N/A     26  25  96 N12       29.98R WCI  16
ABERDEEN       FAIR      26  22  84 N9        29.98R WCI  17
MITCHELL       FAIR      30  27  88 N9        29.92F WCI  22
PIERRE         FAIR      28  23  81 N8        29.95R WCI  20
MOBRIDGE       CLOUDY    28  23  81 N7        29.94F WCI  21
RAPID CITY     LGT SNOW  26  24  92 NE14      29.86R VSB 3/4 WCI  14
$$

  *****  SOME WEATHER IN NEARBY STATES *****

CITY           SKY/WX    TMP DP  RH WIND       PRES   REMARKS
GLASGOW MT     LGT SNOW  27  25  92 CALM      30.02S FOG
GREAT FALLS MT CLOUDY    26  23  88 NE14      29.95S WCI  14
CHEYENNE WY    LGT SNOW  27  25  92 E15       29.57F FOG     WCI  15
SCOTTSBLUFF NE SNOW      28  25  88 E13       29.70S VSB 1/4 WCI  17
OMAHA NE       CLOUDY    37  32  82 NE14      29.81F
DES MOINES IA  CLOUDY    41  35  79 NE8       29.83R
DAVENPORT IA   FAIR      42  38  85 N7        29.78R
CHICAGO IL     FAIR      50  42  74 N8        29.75R
EAU CLAIRE WI  CLOUDY    36  29  75 NE6       29.86S
LA CROSSE WI   CLOUDY    41  31  67 N5        29.86R
$$

  *****  SOME NATIONAL WEATHER *****

CITY           SKY/WX    TMP DP  RH WIND       PRES   REMARKS
LA GUARDIA NY  CLOUDY    50  43  77 CALM      29.91F HAZE
RALEIGH NC     FAIR      58  54  86 CALM      29.97R
ATLANTA GA     FAIR      59  56  89 E9        29.92R
NEW ORLEANS LA FAIR      64  61  90 CALM      29.84R
OKLAHOMA CITY  MOCLDY    52  47  83 S9        29.56S
ALBUQUERQUE NM FAIR      45  26  47 S8        29.68F
SALT LAKE CITY CLOUDY    29  26  89 SE6       29.71S WCI  23
LOS ANGELES CA FAIR      49  30  48 NW14      30.07R
BOISE ID       CLOUDY    31  23  72 NW21      29.83S WCI  18
SEATTLE WA     CLOUDY    35  35 100 S3        30.22S
$$

*** WEATHER ACROSS MANITOBA...SASKATCHEWAN AND ONTARIO ***
                ***ONTARIO***

CITY           SKY/WX    TMP DP  RH WIND       PRES   REMARKS
GERALDTON      LGT SNOW  23  18  80 N7        29.78R WCI  15
THUNDER BAY    PTSUNNY   32  18  55 NW9       29.85R WCI  24
SIOUX LOOKOUT  FLURRIES  18   9  68 NW12G18   29.89R WCI   5
TORONTO        CLOUDY    57  54  88 SW13G20   29.60F
BIG TROUT LK   FLURRIES   0  -6  78 NW10G20   29.87S WCI -17
PICKLE LAKE    FLURRIES   3  -4  72 W10G20    29.86S WCI -12
DRYDEN         FLURRIES  16   9  73 W16       29.92R WCI   0
KENORA         PTCLDY    16   5  62 NW10G23   29.99R WCI   3
$$
                *** MANITOBA***

CITY           SKY/WX    TMP DP  RH WIND       PRES   REMARKS
BRANDON        FLURRIES  21  14  73 VRB7      30.08R WCI  13
DAUPHIN        FLURRIES  19  16  86 E6        30.10R WCI  11
ISLAND LAKE    NOT AVBL
PILOT MOUND      N/A     21  16  79 NE8         N/A  WCI  12
THE PAS        PTCLDY     1  -4  78 N3        30.13R
THOMPSON       PTCLDY   -17 -22  76 N7        30.18R WCI -33
WINNIPEG       FLURRIES  21  14  73 NE7       30.11R WCI  13
LYNN LAKE      CLOUDY    -9 -13  84 NE9       30.17R WCI -27
CHURCHILL      PTCLDY   -13 -18  77 N9        30.28R WCI -31
GILLAM         CLEAR    -20 -27  69 NW9       30.16R WCI -40
$$
                ***SASKATCHEWAN***

CITY           SKY/WX    TMP DP  RH WIND       PRES   REMARKS
ESTEVAN        SNOW      23  21  93 N10       30.07R VSB 1/2 WCI  12
KINDERSLEY     PTCLDY    21  18  86 NW7       30.08R WCI  13
LLOYDMINSTER   MOCLDY    16  12  86 NW2       30.07R
PRINCE ALBERT  FLURRIES  16  12  86 NW15      30.05R WCI   1
REGINA         PTCLDY    19  16  86 SW5       30.09R WCI  13
YORKTON        CLEAR     12  10  92 W6        30.07R WCI   3
N. BATTLEFORD  PTCLDY    14  12  92 NW7       30.11R WCI   4
LA RONGE       PTCLDY     1  -2  85 CALM      30.12R
SASKATOON      CLOUDY    19  14  79 NW9       30.10R WCI   9
SWIFT CURRENT  CLEAR     18  14  86 CALM      30.06R
$$
NOTE: THESE ARE AUTOMATED STATIONS WITH LIMITED QUALITY CONTROL
      "FAIR" INDICATES FEW OR NO CLOUDS BELOW 12,000 FEET WITH NO
      SIGNIFICANT WEATHER AND/OR OBSTRUCTIONS TO VISIBILITY.
      SKY/WX - SKY CONDITION AND SIGNIFICANT WEATHER.
      TMP - AIR TEMPERATURE.    DP   - DEWPOINT TEMPERATURE.
      RH  - RELATIVE HUMIDITY.  PRES - PRESSURE.
      HX  - HEAT INDEX.         WCI  - WIND CHILL INDEX.
$




USA.gov is the U.S. government's official web portal to all federal, state and local government web resources and services.